Regional Weather Roundup
Issued by NWS

Home | Current Version | Previous Version | Text Only | Print | Product List | Glossary Off
Versions: 1 2 3 4 5 6 7 8 9 10 11 12 13 14 15 16 17 18 19 20 21 22 23 24 25 26 27 28 29 30 31 32 33 34 35 36 37 38 39 40 41 42 43 44 45 46 47 48 49 50

679
ASUS43 KOAX 261210
RWRNE

WEATHER ROUNDUP FOR NEBRASKA
NATIONAL WEATHER SERVICE OMAHA NE
700 AM CDT TUE SEP 26 2017

NOTES: SATELLITE DATA IS BEING USED TO AUGMENT CLOUD COVER ABOVE
       12000 FEET.
       "FAIR" INDICATES FEW OR NO CLOUDS BELOW 12,000 FEET WITH NO
       SIGNIFICANT WEATHER AND/OR OBSTRUCTIONS TO VISIBILITY.


NEZ001>004-019>022-054>056-261300-
NEBRASKA PANHANDLE

CITY           SKY/WX    TMP DP  RH WIND       PRES   REMARKS
SCOTTSBLUFF    CLEAR     37  35  92 E5        30.14R WCI  33
6HR MIN TEMP:  37; 6HR MAX TEMP:  44;

ALLIANCE       FOG       33  33 100 SE6       30.13S VSB 1   WCI  28
6HR MIN TEMP:  33; 6HR MAX TEMP:  42;

CHADRON        CLEAR     42  38  85 SW3       30.12R
6HR MIN TEMP:  37; 6HR MAX TEMP:  47; 6HR PCP:  0.02;

GORDON         FAIR      40  38  93 CALM      30.12R
6HR MIN TEMP:  38; 6HR MAX TEMP:  43;

KIMBALL        CLEAR     37  37 100 W7        30.16R WCI  31
SIDNEY         CLEAR     32  31  96 W3        30.16R
6HR MIN TEMP:  31; 6HR MAX TEMP:  39;

$$

NEZ057>060-069>072-079>082-261300-
SOUTHWEST NEBRASKA

CITY           SKY/WX    TMP DP  RH WIND       PRES   REMARKS
NORTH PLATTE   CLOUDY    48  44  86 NW9       30.15R
6HR MIN TEMP:  44; 6HR MAX TEMP:  49;

IMPERIAL       CLOUDY    45  42  89 N3        30.16R
6HR MIN TEMP:  45; 6HR MAX TEMP:  47;

LEXINGTON      CLOUDY    49  46  88 NW9G16    30.13R
MCCOOK         PTCLDY    44  44 100 NW5       30.16R
6HR MIN TEMP:  44; 6HR MAX TEMP:  49;

OGALLALA       CLEAR     42  40  93 CALM      30.16R
$$

NEZ005>010-023>029-035>040-094-261300-
NORTH CENTRAL NEBRASKA

CITY           SKY/WX    TMP DP  RH WIND       PRES   REMARKS
VALENTINE      CLEAR     40  38  93 SW7       30.12S
6HR MIN TEMP:  39; 6HR MAX TEMP:  48;

AINSWORTH      CLEAR     41  41 100 W3        30.11F
BROKEN BOW     CLOUDY    48  44  86 N12       30.12R
6HR MIN TEMP:  47; 6HR MAX TEMP:  49; 6HR PCP:  0.01;

O`NEILL        CLOUDY    47  47  97 NW8       30.11R
ORD            CLOUDY    48  44  86 N9        30.10S
6HR MIN TEMP:  47; 6HR MAX TEMP:  50; 6HR PCP:  0.02;

THEDFORD       CLEAR     42  40  94 W3        30.14R
$$

NEZ041-046>049-061>064-073>077-083>087-261300-
SOUTH CENTRAL NEBRASKA

CITY           SKY/WX    TMP DP  RH WIND       PRES   REMARKS
GRAND ISLAND   CLOUDY   N/A N/A N/A NW9       30.12R
                                      6HR PCP:  0.13;

AURORA         CLOUDY    49  49  98 NW12      30.10R
HASTINGS       CLOUDY    49  46  90 N10       30.11R
6HR MIN TEMP:  49; 6HR MAX TEMP:  51; 6HR PCP: TRACE;

HEBRON         CLOUDY    52  51  95 N9        30.08S
HOLDREGE       CLOUDY    45  44  96 NW3       30.12R
KEARNEY        CLOUDY    48  45  89 N16       30.13R
YORK           CLOUDY    50  50 100 N9        30.09R
$$

NEZ011>018-030>034-042>045-261300-
NORTHEAST NEBRASKA

CITY           SKY/WX    TMP DP  RH WIND       PRES   REMARKS
NORFOLK        CLOUDY    50  48  93 NW15G21   30.06S
6HR MIN TEMP:  50; 6HR MAX TEMP:  51; 6HR PCP:  0.18;

ALBION         CLOUDY    50  47  90 N10G16    30.10R
BLAIR          CLOUDY    54  53  97 NW8       30.04R FOG
COLUMBUS       CLOUDY    51  49  92 NW8       30.10R
FREMONT        CLOUDY    53  52  97 NW10      30.06R
TEKAMAH        CLOUDY    53  51  93 NW9       30.04R
6HR MIN TEMP:  53; 6HR MAX TEMP:  57; 6HR PCP:  0.01;

WAYNE          CLOUDY    51  49  92 NW8       30.07R
$$

NEZ050>053-065>068-078-088>093-261300-
SOUTHEAST NEBRASKA

CITY           SKY/WX    TMP DP  RH WIND       PRES   REMARKS
LINCOLN        CLOUDY    54  51  90 N12       30.08R
6HR MIN TEMP:  54; 6HR MAX TEMP:  57; 6HR PCP: TRACE;

OMAHA EPPLEY   CLOUDY    56  52  86 NW10      30.03R FOG
6HR MIN TEMP:  56; 6HR MAX TEMP:  59; 6HR PCP:  0.04;

BEATRICE       CLOUDY    53  53  98 NW9       30.06R FOG
FALLS CITY     CLOUDY    58  57  97 NW12      30.02R
6HR MIN TEMP:  58; 6HR MAX TEMP:  66; 6HR PCP:  0.01;

NEBRASKA CITY  CLOUDY    55  55 100 NW10      30.04R FOG
PLATTSMOUTH    CLOUDY    55  55 100 NW8       30.04R
$$

NEZ044-045-051>053-067-261300-
OMAHA AREA

CITY           SKY/WX    TMP DP  RH WIND       PRES   REMARKS
OMAHA EPPLEY   CLOUDY    56  52  86 NW10      30.03R FOG
6HR MIN TEMP:  56; 6HR MAX TEMP:  59; 6HR PCP:  0.04;

BLAIR          CLOUDY    54  53  97 NW8       30.04R FOG
FREMONT        CLOUDY    53  52  97 NW10      30.06R
MILLARD        CLOUDY    56  54  93 NW9       30.04R
OFFUTT AFB     CLOUDY    55  54  94 NW8       30.04R
PLATTSMOUTH    CLOUDY    55  55 100 NW8       30.04R
WAHOO          CLOUDY    54  52  95 NW10G16   30.07R
$$




USA.gov is the U.S. government's official web portal to all federal, state and local government web resources and services.